EW3084 Weather Reports


Display with metric or nautical units.
time (UTC)temp
F
wind
direction
speed
MPH
gust
MPH
rain 1hr
in
rain 24hr
in
rain mn
in
humidity
%
barometer
mb
20260902113603 64 273 10.0 22.0 0.00 0.02 0.02 54
20260902112703 64 270 11.0 21.0 0.00 0.02 0.02 57
20260902111803 65 270 8.0 20.0 0.00 0.02 0.02 58
20260902110903 65 276 9.0 22.0 0.00 0.02 0.02 58
20260902110004 65 279 10.0 21.0 0.00 0.02 0.02 61
20260902105403 65 280 11.0 21.0 0.00 0.02 0.02 62
20260902104716 64 270 11.0 22.0 0.00 0.02 0.02 63
20260902103603 64 273 11.0 26.0 0.00 0.02 0.02 64
20260902102703 65 268 8.0 17.0 0.00 0.02 0.02 65
20260902101803 65 268 8.0 18.0 0.00 0.02 0.02 67
20260902100903 64 272 8.0 17.0 0.00 0.02 0.02 70
20260902100003 63 277 9.0 22.0 0.00 0.02 0.02 73
20260902095403 62 275 9.0 20.0 0.00 0.02 0.02 74
20260902094503 62 272 10.0 20.0 0.01 0.02 0.02 80
20260902093603 62 274 6.0 20.0 0.02 0.02 0.02 87
20260902092703 62 274 5.0 10.0 0.02 0.02 0.02 93
20260902091803 61 273 6.0 14.0 0.02 0.02 0.02 95
20260902090903 61 273 5.0 11.0 0.02 0.02 0.02 99
20260902090003 60 276 6.0 14.0 0.02 0.02 0.02 100
20260902085403 60 273 6.0 14.0 0.02 0.02 0.02 100
20260902084503 60 270 6.0 14.0 0.01 0.01 0.01 100
20260902083819 60 269 7.0 15.0 0.00 0.00 0.00 97
20260902082703 61 269 6.0 18.0 0.00 0.00 0.00 93
20260902081803 61 280 5.0 18.0 0.00 0.00 0.00 94
20260902081116 60 279 4.0 18.0 0.00 0.00 0.00 97
20260902080003 60 257 3.0 11.0 0.00 0.00 0.00 97
20260902075403 60 263 3.0 9.0 0.00 0.00 0.00 94
20260902074503 60 277 6.0 17.0 0.00 0.00 0.00 93
20260902073818 60 275 3.0 17.0 0.00 0.00 0.00 93
20260902072703 60 271 3.0 9.0 0.00 0.00 0.00 92
20260902071803 60 282 3.0 11.0 0.00 0.00 0.00 91
20260902070903 61 276 5.0 12.0 0.00 0.00 0.00 89
20260902070003 61 271 6.0 12.0 0.00 0.00 0.00 88
20260902065403 60 280 6.0 14.0 0.00 0.00 0.00 88
20260902064503 60 275 6.0 13.0 0.00 0.00 0.00 89
20260902063603 60 275 4.0 11.0 0.00 0.00 0.00 91
20260902062703 59 280 5.0 13.0 0.00 0.00 0.00 91
20260902062016 59 271 4.0 10.0 0.00 0.00 0.00 91
20260902060903 58 282 4.0 11.0 0.00 0.00 0.00 92
20260902060003 58 269 4.0 11.0 0.00 0.00 0.00 93
20260902055403 58 264 7.0 17.0 0.00 0.00 0.00 93
20260902054503 58 269 6.0 14.0 0.00 0.00 0.00 93
20260902053817 58 274 5.0 12.0 0.00 0.00 0.00 95
20260902052703 57 269 5.0 12.0 0.00 0.00 0.00 100
20260902051803 57 277 3.0 11.0 0.00 0.00 0.00 100
20260902050903 57 280 4.0 11.0 0.00 0.00 0.00 100
20260902050005 57 276 5.0 12.0 0.00 0.00 0.00 100
20260902045403 57 280 4.0 12.0 0.00 0.00 0.00 100
20260902044503 58 268 5.0 10.0 0.00 0.00 0.00 100
20260902043603 58 269 6.0 14.0 0.00 0.00 0.00 100
20260902042703 58 273 7.0 14.0 0.00 0.00 0.00 100
20260902041803 58 271 5.0 14.0 0.00 0.00 0.00 100
20260902040903 58 278 5.0 11.0 0.00 0.00 0.00 100
20260902040003 58 264 5.0 12.0 0.00 0.00 0.00 100
20260902035403 58 267 4.0 11.0 0.00 0.00 0.00 100
20260902034503 58 274 7.0 14.0 0.00 0.01 0.00 100
20260902033816 58 275 7.0 14.0 0.00 0.01 0.00 100
20260902032916 58 272 7.0 16.0 0.00 0.01 0.00 100
20260902031803 58 271 6.0 14.0 0.00 0.01 0.00 100
20260902030903 58 280 5.0 14.0 0.00 0.01 0.00 100
20260902030003 58 273 4.0 11.0 0.00 0.01 0.00 100
20260902025617 57 273 4.0 11.0 0.00 0.01 0.00 100
20260902024503 57 278 2.0 7.0 0.00 0.01 0.00 100
20260902023603 56 281 1.0 6.0 0.00 0.01 0.00 100
20260902022703 56 306 1.0 4.0 0.00 0.01 0.00 100
20260902021803 56 316 0.0 2.0 0.00 0.01 0.00 100
20260902021118 55 316 0.0 1.0 0.00 0.01 0.00 100
20260902020003 55 316 0.0 2.0 0.00 0.01 0.00 100
20260902015617 55 0 0.0 0.0 0.00 0.01 0.00 100
20260902014716 55 0 0.0 0.0 0.00 0.01 0.00 100
20260902013603 56 0 0.0 0.0 0.00 0.01 0.00 100
20260902012703 56 316 0.0 3.0 0.00 0.01 0.00 100
20260902011803 55 317 0.0 4.0 0.00 0.01 0.00 100
20260902010903 55 298 1.0 4.0 0.00 0.01 0.00 100
20260902010003 56 285 1.0 6.0 0.00 0.01 0.00 100
20260902005403 56 275 1.0 6.0 0.00 0.01 0.00 100
20260902004503 56 271 2.0 7.0 0.00 0.01 0.00 100
20260902003603 56 275 2.0 5.0 0.00 0.01 0.00 100
20260902002703 56 275 3.0 10.0 0.00 0.01 0.00 100
20260902002018 56 275 3.0 10.0 0.00 0.01 0.00 100
20260902000903 56 283 3.0 10.0 0.00 0.01 0.00 100
20260902000218 56 278 3.0 7.0 0.00 0.01 0.00 100
20260901235403 56 268 3.0 7.0 0.00 0.01 0.00 100
20260901234503 56 274 2.0 8.0 0.00 0.01 0.00 100
20260901233603 56 270 2.0 5.0 0.00 0.01 0.00 100
20260901232703 56 271 3.0 6.0 0.00 0.01 0.00 100
20260901231803 57 275 5.0 9.0 0.00 0.01 0.00 100
20260901230903 56 272 2.0 9.0 0.00 0.01 0.00 100
20260901230003 56 280 2.0 7.0 0.00 0.01 0.00 100
20260901225616 56 286 0.0 7.0 0.00 0.01 0.00 100
20260901224503 57 282 2.0 8.0 0.00 0.01 0.00 100
20260901223603 57 283 2.0 10.0 0.00 0.01 0.00 100
20260901222703 57 281 3.0 7.0 0.00 0.01 0.00 100
20260901221803 57 295 2.0 7.0 0.00 0.01 0.00 100
20260901220903 58 270 3.0 10.0 0.00 0.01 0.00 99
20260901220003 58 270 5.0 11.0 0.00 0.01 0.00 99
20260901215403 58 274 6.0 15.0 0.00 0.01 0.01 99
20260901214503 57 277 4.0 12.0 0.00 0.01 0.01 99
20260901213603 57 281 3.0 7.0 0.00 0.01 0.01 96
20260901212703 57 290 3.0 9.0 0.00 0.01 0.01 94
20260901211803 57 289 1.0 5.0 0.00 0.01 0.01 93
20260901210903 57 281 1.0 3.0 0.00 0.01 0.01 91
20260901210216 57 289 0.0 3.0 0.00 0.01 0.01 90
20260901205403 57 293 0.0 2.0 0.00 0.01 0.01 89
20260901204503 57 285 0.0 3.0 0.00 0.01 0.01 88
20260901203603 57 293 0.0 3.0 0.00 0.01 0.01 87
20260901202917 57 302 0.0 3.0 0.00 0.01 0.01 87
20260901201803 57 303 0.0 3.0 0.00 0.01 0.01 87
20260901200903 57 287 0.0 3.0 0.00 0.01 0.01 86
20260901200215 58 286 0.0 3.0 0.00 0.01 0.01 86
20260901195619 58 286 1.0 3.0 0.00 0.01 0.01 85
20260901194503 58 285 0.0 3.0 0.00 0.01 0.01 85
20260901193818 58 288 0.0 4.0 0.00 0.01 0.01 84
20260901192703 59 280 1.0 4.0 0.00 0.01 0.01 83
20260901191803 59 282 1.0 5.0 0.00 0.01 0.01 83
20260901190903 59 284 1.0 4.0 0.00 0.01 0.01 82
20260901190003 59 289 0.0 3.0 0.00 0.01 0.01 81
20260901185403 60 289 0.0 3.0 0.00 0.01 0.01 81
20260901184503 60 289 0.0 1.0 0.00 0.01 0.01 80
20260901183603 60 289 0.0 3.0 0.00 0.01 0.01 80
20260901182703 61 285 0.0 3.0 0.00 0.01 0.01 78
20260901181803 62 286 1.0 4.0 0.00 0.01 0.01 77
20260901180903 62 287 1.0 3.0 0.00 0.01 0.01 75
20260901180219 62 287 2.0 4.0 0.00 0.01 0.01 75
20260901175403 63 281 2.0 6.0 0.00 0.01 0.01 74
20260901174503 64 285 1.0 4.0 0.00 0.01 0.01 74
20260901173603 64 270 0.0 3.0 0.00 0.01 0.01 74
20260901172703 65 271 1.0 3.0 0.00 0.01 0.01 72
20260901171803 66 318 0.0 3.0 0.00 0.01 0.01 71
20260901170903 67 318 0.0 3.0 0.00 0.01 0.01 67
20260901170003 68 318 1.0 3.0 0.00 0.01 0.01 66
20260901165403 68 318 1.0 3.0 0.00 0.01 0.01 64
20260901164717 68 318 0.0 2.0 0.00 0.01 0.01 64
20260901163603 69 318 0.0 3.0 0.00 0.01 0.01 65
20260901162703 70 291 1.0 3.0 0.00 0.01 0.01 65
20260901161803 70 243 0.0 3.0 0.00 0.01 0.01 65
20260901160903 69 296 1.0 2.0 0.00 0.01 0.01 64
20260901160003 69 299 1.0 3.0 0.00 0.01 0.01 64
20260901155403 68 299 0.0 1.0 0.00 0.01 0.01 64
20260901154503 67 299 0.0 1.0 0.00 0.01 0.01 71
20260901153816 66 0 0.0 0.0 0.00 0.01 0.01 74
20260901152703 66 0 0.0 0.0 0.00 0.01 0.01 74
20260901151803 67 0 0.0 0.0 0.00 0.01 0.01 71
20260901150903 67 299 0.0 1.0 0.00 0.01 0.01 71
20260901150003 67 299 0.0 2.0 0.00 0.01 0.01 67
20260901145403 67 0 0.0 0.0 0.00 0.01 0.01 69
20260901144503 68 0 0.0 0.0 0.00 0.01 0.01 67
20260901143603 68 299 0.0 2.0 0.00 0.01 0.01 65
20260901142703 68 299 0.0 1.0 0.00 0.01 0.01 65
20260901141803 68 0 0.0 0.0 0.00 0.01 0.01 65
20260901140903 68 299 1.0 3.0 0.00 0.01 0.01 65
20260901140003 69 292 1.0 3.0 0.00 0.01 0.01 62
20260901135403 69 282 3.0 6.0 0.00 0.01 0.01 60
20260901134716 70 275 2.0 6.0 0.00 0.01 0.01 57
20260901133603 68 281 0.0 3.0 0.00 0.01 0.01 64
20260901132919 68 281 0.0 2.0 0.00 0.01 0.01 64
20260901131803 68 281 0.0 1.0 0.00 0.01 0.01 60
20260901130903 68 281 1.0 3.0 0.00 0.01 0.01 58
20260901130003 69 271 2.0 6.0 0.00 0.01 0.01 57
20260901125616 70 263 2.0 6.0 0.00 0.01 0.01 55
20260901124503 71 136 1.0 4.0 0.00 0.01 0.01 57
20260901123603 70 106 0.0 3.0 0.00 0.01 0.01 61
20260901122918 70 113 1.0 3.0 0.00 0.01 0.01 60
20260901121803 72 125 1.0 4.0 0.00 0.01 0.01 57
20260901120903 71 100 2.0 6.0 0.00 0.01 0.01 58
20260901120003 70 135 1.0 6.0 0.00 0.01 0.01 61
20260901115403 70 129 2.0 6.0 0.00 0.01 0.01 62
20260901114503 69 30 1.0 3.0 0.00 0.01 0.01 62